When you browse on this site, cookies collect data to enhance your experience and personalize the content and advertising you see.
Visit our Privacy Policy to learn more. By continuing to use the site, you agree to this use of cookies and data.
  • In Deutschland
  • Länderverzeichnis
  • Für 7 Tage
  • Wassertemperatur
  • Satellitenkarten
  • Wetterkarte
  • Widgets
  • user-avatar
    Anmelden

    Stündliche Wetter Loudi

    Heute, 19 Dezember, Mittwoch

    Zeit Temperatur Niederschläge Wind Luftdruck Luftfeuchtigkeit
    00:00 +12°C° 0 mm 1 m/S 752 mmHg 52%
    01:00 +12°C° 0 mm 1 m/S 752 mmHg 51%
    02:00 +12°C° 0 mm 1 m/S 752 mmHg 52%
    03:00 +11°C° 0 mm 1 m/S 751 mmHg 53%
    04:00 +11°C° 0 mm 1 m/S 751 mmHg 54%
    05:00 +11°C° 0 mm 1 m/S 751 mmHg 55%
    06:00 +11°C° 0 mm 1 m/S 751 mmHg 56%
    07:00 +12°C° 0 mm 1 m/S 751 mmHg 58%
    08:00 +14°C° 0 mm 1 m/S 751 mmHg 53%
    09:00 +16°C° 0 mm 1 m/S 751 mmHg 48%
    10:00 +19°C° 0 mm 1 m/S 751 mmHg 43%
    11:00 +19°C° 0 mm 1 m/S 751 mmHg 45%
    12:00 +20°C° 0 mm 1 m/S 750 mmHg 47%
    13:00 +20°C° 0 mm 1 m/S 750 mmHg 47%
    14:00 +20°C° 0 mm 1 m/S 750 mmHg 50%
    15:00 +19°C° 0 mm 1 m/S 750 mmHg 54%
    16:00 +19°C° 0 mm 1 m/S 750 mmHg 58%
    17:00 +18°C° 0.4 mm 1 m/S 750 mmHg 63%
    18:00 +16°C° 0.4 mm 1 m/S 750 mmHg 69%
    19:00 +15°C° 0.4 mm 2 m/S 751 mmHg 75%
    20:00 +14°C° 1.1 mm 2 m/S 751 mmHg 78%
    21:00 +13°C° 1.1 mm 2 m/S 752 mmHg 81%
    22:00 +13°C° 1.1 mm 2 m/S 752 mmHg 84%
    23:00 +13°C° 0.4 mm 2 m/S 752 mmHg 85%

    Morgen, 20 Dezember, Donnerstag

    Zeit Temperatur Niederschläge Wind Luftdruck Luftfeuchtigkeit
    00:00 +12°C° 0.4 mm 2 m/S 752 mmHg 85%
    01:00 +12°C° 0.4 mm 2 m/S 752 mmHg 85%
    02:00 +12°C° 0.2 mm 2 m/S 752 mmHg 86%
    03:00 +12°C° 0.2 mm 2 m/S 752 mmHg 86%
    04:00 +11°C° 0.2 mm 1 m/S 752 mmHg 86%
    05:00 +11°C° 0.2 mm 1 m/S 752 mmHg 87%
    06:00 +11°C° 0.2 mm 1 m/S 752 mmHg 88%
    07:00 +11°C° 0.2 mm 1 m/S 752 mmHg 88%
    08:00 +12°C° 0.1 mm 1 m/S 753 mmHg 86%
    09:00 +12°C° 0.1 mm 1 m/S 753 mmHg 84%
    10:00 +13°C° 0.1 mm 1 m/S 753 mmHg 82%
    11:00 +14°C° 0 mm 1 m/S 752 mmHg 79%
    12:00 +15°C° 0 mm 1 m/S 752 mmHg 75%
    13:00 +16°C° 0 mm 1 m/S 751 mmHg 72%
    14:00 +16°C° 0 mm 1 m/S 751 mmHg 73%
    15:00 +16°C° 0 mm 1 m/S 750 mmHg 75%
    16:00 +16°C° 0 mm 1 m/S 750 mmHg 76%
    17:00 +15°C° 0 mm 1 m/S 750 mmHg 80%
    18:00 +15°C° 0 mm 1 m/S 750 mmHg 83%
    19:00 +14°C° 0 mm 1 m/S 750 mmHg 87%
    20:00 +14°C° 0 mm 1 m/S 750 mmHg 87%
    21:00 +13°C° 0 mm 0 m/S 751 mmHg 87%
    22:00 +13°C° 0 mm 0 m/S 751 mmHg 87%
    23:00 +14°C° 0 mm 1 m/S 751 mmHg 88%

    übermorgen, 21 Dezember, Freitag

    Zeit Temperatur Niederschläge Wind Luftdruck Luftfeuchtigkeit
    00:00 +14°C° 0 mm 1 m/S 751 mmHg 88%
    01:00 +14°C° 0 mm 1 m/S 751 mmHg 89%
    02:00 +14°C° 0.2 mm 1 m/S 751 mmHg 90%
    03:00 +14°C° 0.2 mm 1 m/S 751 mmHg 91%
    04:00 +14°C° 0.2 mm 1 m/S 751 mmHg 92%
    05:00 +14°C° 0.3 mm 2 m/S 751 mmHg 93%
    06:00 +14°C° 0.3 mm 2 m/S 752 mmHg 93%
    07:00 +14°C° 0.3 mm 2 m/S 752 mmHg 93%
    08:00 +14°C° 0.3 mm 2 m/S 753 mmHg 92%
    09:00 +14°C° 0.3 mm 2 m/S 753 mmHg 91%
    10:00 +14°C° 0.3 mm 2 m/S 753 mmHg 91%
    11:00 +14°C° 0.3 mm 2 m/S 753 mmHg 90%
    12:00 +14°C° 0.3 mm 2 m/S 752 mmHg 89%
    13:00 +14°C° 0.3 mm 2 m/S 751 mmHg 89%
    14:00 +14°C° 0.4 mm 2 m/S 751 mmHg 90%
    15:00 +14°C° 0.4 mm 2 m/S 751 mmHg 91%
    16:00 +13°C° 0.4 mm 2 m/S 751 mmHg 92%
    17:00 +13°C° 0.3 mm 2 m/S 751 mmHg 92%
    18:00 +13°C° 0.3 mm 2 m/S 752 mmHg 93%
    19:00 +13°C° 0.3 mm 2 m/S 752 mmHg 93%
    20:00 +13°C° 0.2 mm 2 m/S 752 mmHg 93%
    21:00 +13°C° 0.2 mm 2 m/S 753 mmHg 93%
    22:00 +13°C° 0.2 mm 2 m/S 753 mmHg 93%
    23:00 +13°C° 0.3 mm 2 m/S 753 mmHg 93%

    22 Dezember, Samstag

    Zeit Temperatur Niederschläge Wind Luftdruck Luftfeuchtigkeit
    00:00 +13°C° 0.3 mm 2 m/S 753 mmHg 93%
    01:00 +13°C° 0.3 mm 2 m/S 753 mmHg 93%
    02:00 +13°C° 0.5 mm 2 m/S 752 mmHg 94%
    03:00 +13°C° 0.5 mm 2 m/S 752 mmHg 94%
    04:00 +13°C° 0.5 mm 2 m/S 752 mmHg 94%
    05:00 +13°C° 0.3 mm 2 m/S 753 mmHg 93%
    06:00 +13°C° 0.3 mm 2 m/S 753 mmHg 93%
    07:00 +12°C° 0.3 mm 2 m/S 754 mmHg 93%
    08:00 +12°C° 0.2 mm 2 m/S 754 mmHg 92%
    09:00 +11°C° 0.2 mm 3 m/S 755 mmHg 91%
    10:00 +11°C° 0.2 mm 3 m/S 755 mmHg 90%
    11:00 +11°C° 0.1 mm 3 m/S 755 mmHg 89%
    12:00 +11°C° 0.1 mm 3 m/S 755 mmHg 88%
    13:00 +11°C° 0.1 mm 3 m/S 754 mmHg 87%
    14:00 +11°C° 0.1 mm 3 m/S 755 mmHg 87%
    15:00 +11°C° 0.1 mm 3 m/S 755 mmHg 87%
    16:00 +10°C° 0.1 mm 3 m/S 755 mmHg 87%
    17:00 +10°C° 0.1 mm 3 m/S 756 mmHg 87%
    18:00 +10°C° 0.1 mm 3 m/S 757 mmHg 87%
    19:00 +9°C° 0.1 mm 3 m/S 758 mmHg 87%
    20:00 +9°C° 0.1 mm 3 m/S 758 mmHg 86%
    21:00 +9°C° 0.1 mm 3 m/S 758 mmHg 86%
    22:00 +9°C° 0.1 mm 3 m/S 759 mmHg 86%
    23:00 +9°C° 0.1 mm 3 m/S 759 mmHg 86%

    23 Dezember, Sonntag

    Zeit Temperatur Niederschläge Wind Luftdruck Luftfeuchtigkeit
    00:00 +8°C° 0.1 mm 3 m/S 759 mmHg 86%
    01:00 +8°C° 0.1 mm 3 m/S 759 mmHg 87%
    02:00 +8°C° 0.4 mm 3 m/S 759 mmHg 87%
    03:00 +8°C° 0.4 mm 3 m/S 759 mmHg 87%
    04:00 +8°C° 0.4 mm 3 m/S 759 mmHg 87%
    05:00 +8°C° 0.3 mm 3 m/S 759 mmHg 86%
    06:00 +8°C° 0.3 mm 3 m/S 760 mmHg 84%
    07:00 +8°C° 0.3 mm 3 m/S 760 mmHg 83%
    08:00 +9°C° 0.1 mm 3 m/S 760 mmHg 79%
    09:00 +9°C° 0.1 mm 3 m/S 760 mmHg 75%
    10:00 +10°C° 0.1 mm 3 m/S 760 mmHg 71%
    11:00 +10°C° 0.1 mm 3 m/S 759 mmHg 71%
    12:00 +10°C° 0.1 mm 3 m/S 759 mmHg 70%
    13:00 +11°C° 0.1 mm 3 m/S 758 mmHg 70%
    14:00 +10°C° 0.1 mm 2 m/S 758 mmHg 72%
    15:00 +10°C° 0.1 mm 2 m/S 758 mmHg 74%
    16:00 +11°C° 0.1 mm 1 m/S 757 mmHg 76%
    17:00 +11°C° 0 mm 1 m/S 758 mmHg 77%
    18:00 +11°C° 0 mm 1 m/S 758 mmHg 78%
    19:00 +11°C° 0 mm 1 m/S 758 mmHg 78%
    20:00 +11°C° 0 mm 1 m/S 758 mmHg 78%
    21:00 +11°C° 0 mm 1 m/S 758 mmHg 78%
    22:00 +11°C° 0 mm 1 m/S 758 mmHg 78%
    23:00 +11°C° 0 mm 1 m/S 757 mmHg 78%

    24 Dezember, Montag

    Zeit Temperatur Niederschläge Wind Luftdruck Luftfeuchtigkeit
    00:00 +10°C° 0 mm 1 m/S 757 mmHg 79%
    01:00 +10°C° 0 mm 1 m/S 756 mmHg 79%
    02:00 +10°C° 0 mm 1 m/S 756 mmHg 80%
    03:00 +10°C° 0 mm 1 m/S 756 mmHg 80%
    04:00 +10°C° 0 mm 1 m/S 756 mmHg 80%
    05:00 +10°C° 0.1 mm 1 m/S 756 mmHg 81%
    06:00 +10°C° 0.1 mm 1 m/S 756 mmHg 81%
    07:00 +10°C° 0.1 mm 1 m/S 756 mmHg 82%
    08:00 +9°C° 0.2 mm 0 m/S 756 mmHg 82%
    09:00 +9°C° 0.2 mm 0 m/S 755 mmHg 82%
    10:00 +10°C° 0.2 mm 0 m/S 755 mmHg 82%
    11:00 +10°C° 0 mm 0 m/S 754 mmHg 80%
    12:00 +12°C° 0 mm 1 m/S 753 mmHg 79%
    13:00 +13°C° 0 mm 1 m/S 752 mmHg 77%
    14:00 +13°C° 0 mm 1 m/S 752 mmHg 78%
    15:00 +13°C° 0 mm 1 m/S 752 mmHg 79%
    16:00 +13°C° 0 mm 1 m/S 751 mmHg 80%
    17:00 +13°C° 0 mm 1 m/S 751 mmHg 83%
    18:00 +12°C° 0 mm 1 m/S 751 mmHg 86%
    19:00 +12°C° 0 mm 1 m/S 751 mmHg 89%
    20:00 +12°C° 0.1 mm 1 m/S 752 mmHg 90%
    21:00 +12°C° 0.1 mm 1 m/S 752 mmHg 90%
    22:00 +12°C° 0.1 mm 1 m/S 752 mmHg 91%
    23:00 +11°C° 0 mm 1 m/S 751 mmHg 92%
    Mehr zeigen